| time (UTC) | temp F | wind direction | speed MPH | gust MPH | rain 1hr in | rain 24hr in | rain mn in | humidity % | barometer mb |
| 20260505014520 | 63 | 84 | 6.0 | 10.0 | 0.00 | 0.00 | 0.00 | 94 | 1030.7 |
| 20260505014016 | 63 | 94 | 5.0 | 9.0 | 0.00 | 0.00 | 0.00 | 94 | 1030.7 |
| 20260505013520 | 63 | 48 | 6.0 | 12.0 | 0.00 | 0.00 | 0.00 | 94 | 1030.9 |
| 20260505013017 | 63 | 109 | 5.0 | 12.0 | 0.00 | 0.00 | 0.00 | 94 | 1030.9 |
| 20260505012516 | 64 | 99 | 5.0 | 11.0 | 0.00 | 0.00 | 0.00 | 94 | 1031.0 |
| 20260505012011 | 64 | 105 | 6.0 | 11.0 | 0.00 | 0.00 | 0.00 | 94 | 1030.9 |
| 20260505011513 | 64 | 101 | 6.0 | 11.0 | 0.00 | 0.00 | 0.00 | 94 | 1031.2 |
| 20260505011013 | 64 | 96 | 5.0 | 12.0 | 0.00 | 0.00 | 0.00 | 94 | 1031.1 |
| 20260505010508 | 64 | 109 | 6.0 | 12.0 | 0.00 | 0.00 | 0.00 | 94 | 1031.2 |
| 20260505010007 | 64 | 99 | 6.0 | 11.0 | 0.00 | 0.00 | 0.00 | 94 | 1031.1 |
| 20260505005508 | 64 | 61 | 7.0 | 11.0 | 0.00 | 0.00 | 0.00 | 94 | 1031.2 |
| 20260505005007 | 64 | 96 | 3.0 | 11.0 | 0.00 | 0.00 | 0.00 | 94 | 1031.1 |
| 20260505004509 | 64 | 103 | 3.0 | 12.0 | 0.00 | 0.00 | 0.00 | 94 | 1031.2 |
| 20260505003512 | 64 | 116 | 5.0 | 14.0 | 0.00 | 0.00 | 0.00 | 94 | 1031.6 |
| 20260505003504 | 64 | 113 | 6.0 | 14.0 | 0.00 | 0.00 | 0.00 | 93 | 1031.4 |
| 20260505002455 | 64 | 115 | 7.0 | 13.0 | 0.00 | 0.00 | 0.00 | 94 | 1031.8 |
| 20260505001949 | 63 | 102 | 8.0 | 12.0 | 0.00 | 0.00 | 0.00 | 94 | 1031.8 |
| 20260505001449 | 63 | 128 | 8.0 | 11.0 | 0.00 | 0.00 | 0.00 | 94 | 1031.9 |
| 20260505000945 | 62 | 110 | 6.0 | 11.0 | 0.00 | 0.00 | 0.00 | 94 | 1031.9 |
| 20260505000444 | 62 | 112 | 4.0 | 16.0 | 0.00 | 0.00 | 0.00 | 95 | 1032.1 |
| 20260504235939 | 62 | 138 | 8.0 | 16.0 | 0.00 | 0.00 | 0.00 | 94 | 1032.1 |
| 20260504235435 | 62 | 143 | 7.0 | 11.0 | 0.00 | 0.00 | 0.00 | 94 | 1032.1 |
| 20260504234938 | 62 | 139 | 7.0 | 11.0 | 0.00 | 0.00 | 0.00 | 94 | 1032.3 |
| 20260504234433 | 62 | 119 | 8.0 | 11.0 | 0.00 | 0.00 | 0.00 | 94 | 1032.4 |
| 20260504234203 | 62 | 105 | 6.0 | 12.0 | 0.00 | 0.00 | 0.00 | 94 | 1032.3 |
| 20260504233428 | 62 | 117 | 6.0 | 12.0 | 0.00 | 0.00 | 0.00 | 94 | 1032.4 |
| 20260504232923 | 62 | 141 | 6.0 | 10.0 | 0.00 | 0.00 | 0.00 | 94 | 1032.5 |
| 20260504232419 | 62 | 130 | 5.0 | 9.0 | 0.00 | 0.00 | 0.00 | 94 | 1032.6 |
| 20260504231919 | 62 | 87 | 5.0 | 9.0 | 0.00 | 0.00 | 0.00 | 94 | 1032.6 |
| 20260504231418 | 62 | 144 | 4.0 | 9.0 | 0.00 | 0.00 | 0.00 | 94 | 1032.7 |
| 20260504230915 | 62 | 105 | 5.0 | 11.0 | 0.00 | 0.00 | 0.00 | 94 | 1032.8 |
| 20260504230414 | 62 | 112 | 6.0 | 11.0 | 0.00 | 0.00 | 0.00 | 94 | 1032.7 |
| 20260504225915 | 62 | 110 | 6.0 | 11.0 | 0.00 | 0.00 | 0.00 | 94 | 1032.8 |
| 20260504225414 | 62 | 127 | 5.0 | 9.0 | 0.00 | 0.00 | 0.00 | 94 | 1032.9 |
| 20260504224909 | 62 | 121 | 3.0 | 10.0 | 0.00 | 0.00 | 0.00 | 94 | 1032.9 |
| 20260504224408 | 62 | 150 | 5.0 | 10.0 | 0.00 | 0.00 | 0.00 | 94 | 1032.9 |
| 20260504223908 | 62 | 90 | 5.0 | 9.0 | 0.00 | 0.00 | 0.00 | 94 | 1032.9 |
| 20260504223404 | 62 | 136 | 6.0 | 9.0 | 0.00 | 0.00 | 0.00 | 94 | 1033.0 |
| 20260504222900 | 62 | 116 | 4.0 | 9.0 | 0.00 | 0.00 | 0.00 | 94 | 1033.0 |
| 20260504222356 | 62 | 147 | 4.0 | 9.0 | 0.00 | 0.00 | 0.00 | 94 | 1033.1 |
| 20260504221859 | 61 | 143 | 4.0 | 8.0 | 0.00 | 0.00 | 0.00 | 94 | 1033.0 |
| 20260504221851 | 61 | 150 | 3.0 | 6.0 | 0.00 | 0.00 | 0.00 | 94 | 1033.0 |
| 20260504220843 | 61 | 121 | 4.0 | 8.0 | 0.00 | 0.00 | 0.00 | 94 | 1033.0 |
| 20260504220338 | 61 | 148 | 4.0 | 8.0 | 0.00 | 0.00 | 0.00 | 94 | 1033.1 |
| 20260504215838 | 61 | 132 | 4.0 | 8.0 | 0.00 | 0.00 | 0.00 | 94 | 1033.0 |
| 20260504215340 | 61 | 126 | 3.0 | 8.0 | 0.00 | 0.00 | 0.00 | 94 | 1033.0 |
| 20260504214837 | 60 | 153 | 4.0 | 7.0 | 0.00 | 0.00 | 0.00 | 95 | 1033.0 |
| 20260504214332 | 60 | 152 | 4.0 | 7.0 | 0.00 | 0.00 | 0.00 | 95 | 1033.1 |
| 20260504213832 | 60 | 158 | 4.0 | 7.0 | 0.00 | 0.00 | 0.00 | 95 | 1033.2 |
| 20260504213331 | 60 | 144 | 3.0 | 7.0 | 0.00 | 0.00 | 0.00 | 95 | 1033.1 |
| 20260504212827 | 59 | 146 | 2.0 | 7.0 | 0.00 | 0.00 | 0.00 | 95 | 1033.2 |
| 20260504212323 | 59 | 114 | 2.0 | 6.0 | 0.00 | 0.00 | 0.00 | 95 | 1033.2 |
| 20260504212103 | 59 | 157 | 2.0 | 6.0 | 0.00 | 0.00 | 0.00 | 95 | 1033.2 |
| 20260504211324 | 59 | 109 | 2.0 | 6.0 | 0.00 | 0.00 | 0.00 | 95 | 1033.2 |
| 20260504211057 | 59 | 153 | 2.0 | 5.0 | 0.00 | 0.00 | 0.00 | 95 | 1033.2 |
| 20260504210315 | 59 | 148 | 2.0 | 6.0 | 0.00 | 0.00 | 0.00 | 96 | 1033.2 |
| 20260504210053 | 59 | 167 | 3.0 | 7.0 | 0.00 | 0.00 | 0.00 | 95 | 1033.1 |
| 20260504205311 | 59 | 125 | 3.0 | 7.0 | 0.00 | 0.00 | 0.00 | 96 | 1033.2 |
| 20260504204806 | 59 | 109 | 3.0 | 7.0 | 0.00 | 0.00 | 0.00 | 96 | 1033.2 |
| 20260504204306 | 59 | 136 | 3.0 | 6.0 | 0.00 | 0.00 | 0.00 | 96 | 1033.2 |
| 20260504203805 | 58 | 114 | 2.0 | 6.0 | 0.00 | 0.00 | 0.00 | 96 | 1033.2 |
| 20260504203306 | 58 | 137 | 3.0 | 7.0 | 0.00 | 0.00 | 0.00 | 97 | 1033.2 |
| 20260504202804 | 58 | 129 | 2.0 | 7.0 | 0.00 | 0.00 | 0.00 | 97 | 1033.1 |
| 20260504202259 | 58 | 138 | 3.0 | 5.0 | 0.00 | 0.00 | 0.00 | 97 | 1033.1 |
| 20260504201755 | 58 | 132 | 3.0 | 7.0 | 0.00 | 0.00 | 0.00 | 97 | 1033.1 |
| 20260504201250 | 58 | 102 | 3.0 | 7.0 | 0.00 | 0.00 | 0.00 | 97 | 1033.1 |
| 20260504200749 | 58 | 144 | 4.0 | 7.0 | 0.00 | 0.00 | 0.00 | 97 | 1033.0 |
| 20260504200246 | 58 | 151 | 2.0 | 5.0 | 0.00 | 0.00 | 0.00 | 97 | 1033.0 |
| 20260504195744 | 57 | 160 | 1.0 | 4.0 | 0.00 | 0.00 | 0.00 | 97 | 1033.0 |
| 20260504195244 | 57 | 153 | 2.0 | 5.0 | 0.00 | 0.00 | 0.00 | 98 | 1032.9 |
| 20260504194747 | 57 | 156 | 3.0 | 5.0 | 0.00 | 0.00 | 0.00 | 98 | 1032.8 |
| 20260504194240 | 57 | 143 | 3.0 | 7.0 | 0.00 | 0.00 | 0.00 | 98 | 1032.7 |
| 20260504193737 | 57 | 161 | 2.0 | 7.0 | 0.00 | 0.00 | 0.00 | 98 | 1032.8 |
| 20260504193235 | 57 | 165 | 2.0 | 6.0 | 0.00 | 0.00 | 0.00 | 98 | 1032.7 |
| 20260504192734 | 57 | 180 | 4.0 | 6.0 | 0.00 | 0.00 | 0.00 | 97 | 1032.7 |
| 20260504192227 | 57 | 180 | 3.0 | 5.0 | 0.00 | 0.00 | 0.00 | 97 | 1032.7 |
| 20260504191732 | 57 | 178 | 3.0 | 5.0 | 0.00 | 0.00 | 0.00 | 97 | 1032.7 |
| 20260504191727 | 57 | 178 | 2.0 | 4.0 | 0.00 | 0.00 | 0.00 | 97 | 1032.6 |
| 20260504190718 | 57 | 179 | 2.0 | 5.0 | 0.00 | 0.00 | 0.00 | 97 | 1032.7 |
| 20260504190219 | 57 | 225 | 3.0 | 5.0 | 0.00 | 0.00 | 0.00 | 97 | 1032.7 |
| 20260504185715 | 57 | 187 | 3.0 | 5.0 | 0.00 | 0.00 | 0.00 | 97 | 1032.7 |
| 20260504185209 | 57 | 213 | 2.0 | 4.0 | 0.00 | 0.00 | 0.00 | 97 | 1032.7 |
| 20260504184942 | 57 | 186 | 1.0 | 5.0 | 0.00 | 0.00 | 0.00 | 97 | 1032.6 |
| 20260504184205 | 57 | 202 | 2.0 | 5.0 | 0.00 | 0.00 | 0.00 | 97 | 1032.7 |
| 20260504183703 | 57 | 188 | 2.0 | 3.0 | 0.00 | 0.00 | 0.00 | 97 | 1032.6 |
| 20260504183156 | 57 | 147 | 1.0 | 2.0 | 0.00 | 0.00 | 0.00 | 97 | 1032.6 |
| 20260504182659 | 57 | 147 | 2.0 | 2.0 | 0.00 | 0.00 | 0.00 | 97 | 1032.6 |
| 20260504182157 | 57 | 213 | 0.0 | 3.0 | 0.00 | 0.00 | 0.00 | 98 | 1032.6 |
| 20260504181651 | 56 | 213 | 1.0 | 3.0 | 0.00 | 0.00 | 0.00 | 98 | 1032.6 |
| 20260504181151 | 56 | 213 | 0.0 | 4.0 | 0.00 | 0.00 | 0.00 | 97 | 1032.6 |
| 20260504180646 | 56 | 213 | 2.0 | 4.0 | 0.00 | 0.00 | 0.00 | 97 | 1032.6 |
| 20260504180146 | 56 | 143 | 1.0 | 3.0 | 0.00 | 0.00 | 0.00 | 97 | 1032.6 |
| 20260504175645 | 57 | 143 | 1.0 | 3.0 | 0.00 | 0.00 | 0.00 | 97 | 1032.6 |
| 20260504175147 | 57 | 143 | 2.0 | 3.0 | 0.00 | 0.00 | 0.00 | 97 | 1032.6 |
| 20260504174644 | 57 | 143 | 1.0 | 3.0 | 0.00 | 0.00 | 0.00 | 97 | 1032.6 |
| 20260504174136 | 57 | 143 | 1.0 | 2.0 | 0.00 | 0.00 | 0.00 | 96 | 1032.6 |
| 20260504173635 | 57 | 143 | 0.0 | 3.0 | 0.00 | 0.00 | 0.00 | 96 | 1032.5 |
| 20260504173128 | 58 | 143 | 2.0 | 3.0 | 0.00 | 0.00 | 0.00 | 96 | 1032.7 |
| 20260504172618 | 58 | 143 | 1.0 | 3.0 | 0.00 | 0.00 | 0.00 | 96 | 1032.6 |
| 20260504172120 | 58 | 143 | 1.0 | 3.0 | 0.00 | 0.00 | 0.00 | 96 | 1032.5 |
| 20260504171614 | 58 | 143 | 1.0 | 3.0 | 0.00 | 0.00 | 0.00 | 96 | 1032.6 |
| 20260504171346 | 58 | 129 | 1.0 | 3.0 | 0.00 | 0.00 | 0.00 | 96 | 1032.5 |
| 20260504170612 | 58 | 118 | 1.0 | 4.0 | 0.00 | 0.00 | 0.00 | 96 | 1032.6 |
| 20260504170341 | 58 | 113 | 1.0 | 4.0 | 0.00 | 0.00 | 0.00 | 96 | 1032.5 |
| 20260504150953 | 56 | 115 | 2.0 | 4.0 | 0.00 | 0.00 | 0.00 | 99 | 1032.9 |
| 20260504150449 | 56 | 117 | 1.0 | 3.0 | 0.00 | 0.00 | 0.00 | 98 | 1032.9 |
| 20260504141147 | 57 | 138 | 3.0 | 5.0 | 0.00 | 0.00 | 0.00 | 97 | 1033.5 |
| 20260504141143 | 57 | 138 | 2.0 | 4.0 | 0.00 | 0.00 | 0.00 | 97 | 1033.4 |
| 20260504130817 | 58 | 117 | 2.0 | 5.0 | 0.00 | 0.00 | 0.00 | 95 | 1034.0 |
| 20260504130317 | 59 | 69 | 2.0 | 6.0 | 0.00 | 0.00 | 0.00 | 95 | 1034.0 |
| 20260504120239 | 57 | 127 | 3.0 | 7.0 | 0.00 | 0.00 | 0.00 | 96 | 1034.0 |
| 20260504110712 | 57 | 242 | 1.0 | 3.0 | 0.00 | 0.00 | 0.00 | 95 | 1034.1 |
| 20260504110421 | 57 | 101 | 1.0 | 2.0 | 0.00 | 0.00 | 0.00 | 95 | 1034.0 |
| 20260504100355 | 59 | 130 | 1.0 | 2.0 | 0.00 | 0.00 | 0.00 | 96 | 1034.2 |
| 20260504081521 | 58 | 134 | 2.0 | 5.0 | 0.00 | 0.00 | 0.00 | 96 | 1033.8 |
| 20260504081014 | 58 | 133 | 1.0 | 4.0 | 0.00 | 0.00 | 0.00 | 96 | 1033.8 |
| 20260504080511 | 58 | 143 | 2.0 | 4.0 | 0.00 | 0.00 | 0.00 | 96 | 1033.8 |
| 20260504070155 | 59 | 103 | 2.0 | 4.0 | 0.00 | 0.00 | 0.00 | 95 | 1033.6 |
| 20260504050310 | 61 | 103 | 2.0 | 6.0 | 0.00 | 0.00 | 0.00 | 91 | 1032.8 |
| 20260504045811 | 62 | 119 | 2.0 | 9.0 | 0.00 | 0.00 | 0.00 | 90 | 1032.7 |
| 20260504045306 | 62 | 121 | 3.0 | 9.0 | 0.00 | 0.00 | 0.00 | 90 | 1032.6 |
| 20260504044817 | 62 | 130 | 4.0 | 10.0 | 0.00 | 0.00 | 0.00 | 89 | 1032.7 |
| 20260504044810 | 62 | 104 | 4.0 | 8.0 | 0.00 | 0.00 | 0.00 | 89 | 1032.7 |
| 20260504043758 | 62 | 121 | 6.0 | 10.0 | 0.00 | 0.00 | 0.00 | 89 | 1032.7 |
| 20260504043255 | 62 | 99 | 4.0 | 8.0 | 0.00 | 0.00 | 0.00 | 89 | 1032.7 |
| 20260504042754 | 63 | 103 | 5.0 | 9.0 | 0.00 | 0.00 | 0.00 | 88 | 1032.7 |
| 20260504042250 | 63 | 119 | 5.0 | 9.0 | 0.00 | 0.00 | 0.00 | 88 | 1032.7 |
| 20260504041752 | 63 | 99 | 5.0 | 10.0 | 0.00 | 0.00 | 0.00 | 88 | 1032.8 |
| 20260504041251 | 63 | 118 | 4.0 | 10.0 | 0.00 | 0.00 | 0.00 | 87 | 1032.8 |
| 20260504040746 | 64 | 125 | 5.0 | 10.0 | 0.00 | 0.00 | 0.00 | 87 | 1032.8 |
| 20260504040246 | 64 | 113 | 4.0 | 11.0 | 0.00 | 0.00 | 0.00 | 87 | 1032.8 |
| 20260504035744 | 64 | 124 | 7.0 | 11.0 | 0.00 | 0.00 | 0.00 | 86 | 1032.8 |
| 20260504035244 | 64 | 99 | 6.0 | 13.0 | 0.00 | 0.00 | 0.00 | 86 | 1032.9 |
| 20260504034746 | 64 | 119 | 9.0 | 13.0 | 0.00 | 0.00 | 0.00 | 86 | 1033.0 |
| 20260504034241 | 64 | 101 | 6.0 | 11.0 | 0.00 | 0.00 | 0.00 | 86 | 1032.9 |
| 20260504033743 | 64 | 112 | 6.0 | 10.0 | 0.00 | 0.00 | 0.00 | 87 | 1032.8 |
| 20260504033513 | 64 | 103 | 6.0 | 11.0 | 0.00 | 0.00 | 0.00 | 86 | 1033.0 |
| 20260504033010 | 64 | 120 | 5.0 | 11.0 | 0.00 | 0.00 | 0.00 | 87 | 1032.9 |
| 20260504032233 | 64 | 141 | 8.0 | 11.0 | 0.00 | 0.00 | 0.00 | 86 | 1032.9 |
| 20260504031734 | 64 | 112 | 7.0 | 11.0 | 0.00 | 0.00 | 0.00 | 86 | 1032.8 |
| 20260504031230 | 64 | 124 | 5.0 | 10.0 | 0.00 | 0.00 | 0.00 | 86 | 1033.0 |
| 20260504030725 | 64 | 126 | 6.0 | 11.0 | 0.00 | 0.00 | 0.00 | 86 | 1032.9 |
| 20260504030226 | 64 | 126 | 5.0 | 11.0 | 0.00 | 0.00 | 0.00 | 86 | 1033.0 |
| 20260504025721 | 65 | 143 | 6.0 | 10.0 | 0.00 | 0.00 | 0.00 | 85 | 1033.0 |
| 20260504025501 | 65 | 98 | 6.0 | 10.0 | 0.00 | 0.00 | 0.00 | 83 | 1032.9 |
| 20260504025456 | 65 | 105 | 5.0 | 10.0 | 0.00 | 0.00 | 0.00 | 84 | 1032.8 |
| 20260504024208 | 65 | 101 | 4.0 | 10.0 | 0.00 | 0.00 | 0.00 | 85 | 1032.9 |
| 20260504023708 | 65 | 61 | 4.0 | 10.0 | 0.00 | 0.00 | 0.00 | 84 | 1032.9 |
| 20260504023204 | 65 | 94 | 4.0 | 8.0 | 0.00 | 0.00 | 0.00 | 84 | 1032.9 |
| 20260504022705 | 65 | 66 | 3.0 | 10.0 | 0.00 | 0.00 | 0.00 | 84 | 1033.0 |
| 20260504022204 | 65 | 108 | 6.0 | 10.0 | 0.00 | 0.00 | 0.00 | 83 | 1032.9 |
| 20260504021700 | 66 | 115 | 6.0 | 10.0 | 0.00 | 0.00 | 0.00 | 84 | 1032.9 |
| 20260504021156 | 66 | 107 | 5.0 | 9.0 | 0.00 | 0.00 | 0.00 | 83 | 1032.9 |
| 20260504020926 | 66 | 116 | 5.0 | 9.0 | 0.00 | 0.00 | 0.00 | 84 | 1033.1 |
| 20260504020147 | 65 | 67 | 4.0 | 9.0 | 0.00 | 0.00 | 0.00 | 84 | 1033.2 |
| 20260504015643 | 65 | 109 | 6.0 | 9.0 | 0.00 | 0.00 | 0.00 | 85 | 1033.2 |
| 20260504015142 | 65 | 98 | 4.0 | 9.0 | 0.00 | 0.00 | 0.00 | 83 | 1033.2 |